TimeEDT,TemperatureF,Dew PointF,Humidity,Sea Level PressureIn,VisibilityMPH,Wind Direction,Wind SpeedMPH,Gust SpeedMPH,PrecipitationIn,Events,Conditions,WindDirDegrees,DateUTC
12:04 AM,33.8,33.8,100,29.35,10.0,Calm,Calm,-,N/A,,Overcast,0,2012-10-31 04:04:00
12:56 AM,34.0,32.0,92,29.39,10.0,South,3.5,-,N/A,,Overcast,170,2012-10-31 04:56:00
1:56 AM,34.0,32.0,92,29.38,10.0,SSE,3.5,-,N/A,,Overcast,160,2012-10-31 05:56:00
2:08 AM,33.8,33.8,100,29.35,10.0,Calm,Calm,-,N/A,,Overcast,0,2012-10-31 06:08:00
2:56 AM,34.0,32.0,92,29.39,10.0,SE,3.5,-,N/A,,Overcast,130,2012-10-31 06:56:00
3:12 AM,33.8,32.0,93,29.36,10.0,South,3.5,-,N/A,,Overcast,170,2012-10-31 07:12:00
3:33 AM,33.8,32.0,93,29.36,8.0,South,3.5,-,N/A,,Overcast,170,2012-10-31 07:33:00
3:56 AM,33.1,32.0,96,29.39,4.0,South,4.6,-,N/A,,Overcast,190,2012-10-31 07:56:00
4:25 AM,33.8,32.0,93,29.36,2.0,South,5.8,-,N/A,,Overcast,180,2012-10-31 08:25:00
4:35 AM,33.8,32.0,93,29.36,1.2,South,3.5,-,N/A,,Overcast,170,2012-10-31 08:35:00
4:56 AM,33.1,32.0,96,29.40,0.8,SSW,4.6,-,N/A,,Mist,200,2012-10-31 08:56:00
5:07 AM,33.8,32.0,93,29.37,1.5,South,3.5,-,N/A,,Overcast,180,2012-10-31 09:07:00
5:12 AM,33.8,32.0,93,29.37,3.0,South,3.5,-,0.00,Snow,Light Snow,190,2012-10-31 09:12:00
5:56 AM,33.1,30.9,92,29.42,4.0,Calm,Calm,-,0.00,Snow,Light Snow,0,2012-10-31 09:56:00
6:45 AM,33.8,30.2,87,29.38,2.0,Calm,Calm,-,0.01,Snow,Light Snow,0,2012-10-31 10:45:00
6:56 AM,33.1,30.9,92,29.42,2.0,Calm,Calm,-,0.01,Snow,Light Snow,0,2012-10-31 10:56:00
7:56 AM,33.1,30.9,92,29.43,2.5,SE,3.5,-,0.03,Snow,Light Snow,140,2012-10-31 11:56:00
8:16 AM,33.8,30.2,87,29.40,1.5,Calm,Calm,-,0.01,Snow,Light Snow,0,2012-10-31 12:16:00
8:41 AM,33.8,30.2,87,29.40,2.0,Calm,Calm,-,0.02,Snow,Light Snow,0,2012-10-31 12:41:00
8:52 AM,32.0,30.2,93,29.40,1.8,South,3.5,-,0.02,Snow,Light Snow,170,2012-10-31 12:52:00
8:56 AM,33.1,30.9,92,29.44,1.8,South,3.5,-,0.02,Snow,Light Snow,180,2012-10-31 12:56:00
9:10 AM,33.8,30.2,87,29.40,2.0,SSW,3.5,-,0.00,,Overcast,200,2012-10-31 13:10:00
9:25 AM,33.8,32.0,93,29.40,3.0,SSW,5.8,-,0.00,,Overcast,210,2012-10-31 13:25:00
9:56 AM,35.1,33.1,92,29.45,6.0,SW,16.1,24.2,0.00,,Overcast,220,2012-10-31 13:56:00
10:06 AM,35.6,32.0,87,29.41,7.0,SW,15.0,24.2,N/A,,Overcast,230,2012-10-31 14:06:00
10:56 AM,35.1,32.0,89,29.46,6.0,SW,13.8,-,N/A,,Overcast,230,2012-10-31 14:56:00
11:46 AM,33.8,32.0,93,29.44,2.5,SW,11.5,-,N/A,,Overcast,220,2012-10-31 15:46:00
11:56 AM,34.0,32.0,92,29.48,3.0,SW,13.8,-,N/A,,Overcast,220,2012-10-31 15:56:00
12:12 PM,33.8,32.0,93,29.44,5.0,SW,13.8,20.7,N/A,,Overcast,230,2012-10-31 16:12:00
12:56 PM,35.1,33.1,92,29.49,3.0,SW,11.5,18.4,0.00,,Overcast,220,2012-10-31 16:56:00
1:09 PM,35.6,33.8,93,29.45,2.5,SW,11.5,20.7,N/A,,Overcast,230,2012-10-31 17:09:00
1:47 PM,35.6,33.8,93,29.45,1.8,WSW,9.2,-,N/A,,Overcast,240,2012-10-31 17:47:00
1:56 PM,36.0,34.0,93,29.49,1.8,WSW,15.0,19.6,N/A,,Overcast,240,2012-10-31 17:56:00
2:09 PM,35.6,33.8,93,29.45,2.5,SW,10.4,-,N/A,,Overcast,230,2012-10-31 18:09:00
2:41 PM,37.4,35.6,93,29.46,1.8,SW,11.5,-,0.01,,Overcast,230,2012-10-31 18:41:00
2:56 PM,37.0,35.1,93,29.49,2.0,SW,11.5,-,0.01,,Overcast,230,2012-10-31 18:56:00
3:10 PM,37.4,35.6,93,29.46,4.0,SW,9.2,-,N/A,,Overcast,220,2012-10-31 19:10:00
3:56 PM,36.0,34.0,93,29.51,7.0,SW,11.5,-,N/A,,Overcast,230,2012-10-31 19:56:00
4:56 PM,37.0,35.1,93,29.52,5.0,SW,10.4,19.6,0.01,,Overcast,230,2012-10-31 20:56:00
5:18 PM,37.4,35.6,93,29.48,5.0,SW,10.4,-,0.00,,Overcast,230,2012-10-31 21:18:00
5:56 PM,37.0,35.1,93,29.53,6.0,WSW,13.8,23.0,0.01,,Overcast,240,2012-10-31 21:56:00
6:27 PM,37.4,35.6,93,29.50,10.0,WSW,15.0,-,N/A,,Overcast,240,2012-10-31 22:27:00
6:56 PM,37.0,35.1,93,29.55,10.0,SW,12.7,21.9,N/A,,Overcast,230,2012-10-31 22:56:00
7:56 PM,37.0,34.0,89,29.56,10.0,WSW,16.1,-,0.01,,Overcast,240,2012-10-31 23:56:00
8:56 PM,37.0,35.1,93,29.57,9.0,WSW,19.6,25.3,N/A,,Overcast,240,2012-11-01 00:56:00
9:47 PM,37.4,35.6,93,29.53,10.0,WSW,16.1,-,N/A,,Overcast,250,2012-11-01 01:47:00
9:56 PM,37.0,35.1,93,29.57,10.0,WSW,15.0,20.7,N/A,,Overcast,250,2012-11-01 01:56:00
10:56 PM,37.0,35.1,93,29.58,10.0,WSW,13.8,25.3,N/A,,Overcast,250,2012-11-01 02:56:00